Regional Weather Roundup
Issued by NWS

Home | Current Version | Previous Version | Text Only | Print | Product List | Glossary On
Versions: 1 2 3 4 5 6 7 8 9 10 11 12 13 14 15 16 17 18 19 20 21 22 23 24 25 26 27 28 29 30 31 32 33 34 35 36 37 38 39 40 41 42 43 44 45 46 47 48 49 50
000
ASUS43 KMKX 231421
RWRWI

WISCONSIN REGIONAL WEATHER ROUNDUP
NATIONAL WEATHER SERVICE MILWAUKEE/SULLIVAN WI
900 AM CDT MON OCT 23 2017

NOTE: "FAIR" INDICATES FEW OR NO CLOUDS BELOW 12,000 FEET WITH NO
SIGNIFICANT WEATHER AND/OR OBSTRUCTIONS TO VISIBILITY.

WIZ001-002-006>008-014>016-023>028-231500-
NORTHWEST WISCONSIN

CITY           SKY/WX    TMP DP  RH WIND       PRES   REMARKS
SUPERIOR ARPT  SUNNY     53  37  55 SW9       29.70R
ASHLAND        CLOUDY    52  38  58 S9        29.73R
HAYWARD        CLOUDY    50  38  63 S8        29.74F
SIREN          MOSUNNY   51  36  55 SW7       29.72F
CUMBERLAND     MOSUNNY   45  37  76 S8        29.76S
RICE LAKE      MOSUNNY   47  40  77 S7        29.79R
CHETEK         MOSUNNY   46  42  85 S3        29.78R
LADYSMITH      CLOUDY    47  40  77 S7        29.80S
EAU CLAIRE     CLOUDY    47  41  80 S5        29.78S
MENOMONIE      SUNNY     49  40  69 S7        29.78F
NEW RICHMOND   CLOUDY    50  36  59 S6        29.74F
OSCEOLA        CLOUDY    51  37  59 S3        29.77F
$$

WIZ003>005-009-010-017-018-231500-
NORTH CENTRAL WISCONSIN

CITY           SKY/WX    TMP DP  RH WIND       PRES   REMARKS
MANITOWISH WTR MOSUNNY   46  43  88 S10       29.78F
ARBOR VITAE    SUNNY     47  41  80 S8        29.80F
WOODRUFF       SUNNY     47  41  80 S8        29.80F
RHINELANDER    SUNNY     43  40  89 SE5       29.83S
EAGLE RIVER    NOT AVBL
LAND O LAKES   MOSUNNY   44  41  88 CALM      29.83S
PHILLIPS       CLOUDY    47  39  76 S8        29.78S
TOMAHAWK       SUNNY     40  39  97 S3        29.82F
MEDFORD        PTSUNNY   42  38  88 SE8       29.81S
MERRILL        CLOUDY    42  42 100 S3        29.84F
$$

WIZ029-030-035-036-043>047-231500-
CENTRAL WISCONSIN

CITY           SKY/WX    TMP DP  RH WIND       PRES   REMARKS
WAUSAU         MOSUNNY   41  40  96 SE6       29.83F
MOSINEE        PTSUNNY   41  41 100 SE6       29.85F
MARSHFIELD     CLOUDY    43  39  86 S8        29.83R
STEVENS POINT  CLOUDY    41  41 100 CALM      29.86F
WAUPACA        FOG       42  41  97 CALM      29.88F VSB 1/4
WAUTOMA        FOG      N/A N/A N/A E3        29.87F VSB 1/4
WISC RAPIDS    CLOUDY    43  41  93 S6        29.86F
CAMP DOUGLAS   PTSUNNY   45  41  87 S7        29.84F
$$

WIZ011>013-019>022-031-037>040-048>050-231500-
NORTHEAST WISCONSIN

CITY           SKY/WX    TMP DP  RH WIND       PRES   REMARKS
ANTIGO         CLOUDY    40  40 100 S7        29.85F
SHAWANO        FOG       42  41  96 CALM      29.89F VSB 1/4
OCONTO         CLOUDY    42  42 100 CALM      29.88F VSB<1/4
STURGEON BAY   FOG       44  44 100 CALM      29.89F VSB 1/2
GREEN BAY      FOG       44  44 100 CALM      29.88F VSB 1/4
MANITOWOC      FOG       45  45 100 CALM      29.89F VSB 1/2
APPLETON       PTSUNNY   45  45 100 CALM      29.87F
CLINTONVILLE   FOG       39  39 100 CALM      29.89  VSB<1/4
OSHKOSH        MOSUNNY   46  45  96 CALM      29.87F
$$

WIZ032>034-041-042-053>061-231500-
SOUTHWEST WISCONSIN

CITY           SKY/WX    TMP DP  RH WIND       PRES   REMARKS
LA CROSSE      CLOUDY    50  44  80 S15       29.82S
SPARTA         MOSUNNY   41  40  95 CALM      29.85S
VIROQUA        CLOUDY    45  43  92 S9        29.83F
BOSCOBEL       FOG       42  41  96 CALM      29.87F VSB 1/4
PRAIRIE DU CHI CLOUDY    45  42  89 CALM      29.86F
PLATTEVILLE    CLOUDY    44  44 100 CALM      29.87F
$$

WIZ056-057-062-063-064-067-068-231500-
SOUTH CENTRAL WISCONSIN

CITY           SKY/WX    TMP DP  RH WIND       PRES   REMARKS
REEDSBURG      CLOUDY    43  43 100 CALM      29.85F
BARABOO/DELLS  CLOUDY    43  42  98 CALM      29.85F
LONE ROCK      CLOUDY    42  42 100 SE3       29.85F
MINERAL POINT  CLOUDY    45  45 100 CALM      29.85F
MADISON        CLOUDY    44  43  96 CALM      29.86F
MIDDLETON      CLOUDY    44  44 100 CALM      29.87F
WATERTOWN      CLOUDY    45  45 100 CALM      29.87F FOG
MONROE         CLOUDY    46  43  87 CALM      29.86F
JANESVILLE     PTSUNNY   46  46 100 CALM      29.87F FOG
$$

WIZ051-052-058>065-066-070>072-231500-
SOUTHEAST WISCONSIN

CITY           SKY/WX    TMP DP  RH WIND       PRES   REMARKS
MILWAUKEE      CLOUDY    51  48  89 NE6       29.86F
WAUKESHA       SUNNY     46  45  93 NW5       29.88F
MILWAUKEE/TIMM MOSUNNY   48  45  87 CALM      29.88F
RACINE         LGT RAIN  51  49  92 N8        29.87F
BURLINGTON     CLOUDY    48  48 100 CALM      29.86F
KENOSHA        CLOUDY    50  47  89 NE6       29.86F
FOND DU LAC    CLOUDY    46  43  89 CALM      29.88F
SHEBOYGAN      PTSUNNY   46  46 100 NW3       29.88F FOG
WEST BEND      CLOUDY    45  45 100 CALM      29.87F FOG
JUNEAU         FOG       44  43  99 CALM      29.88F VSB 1/4
$$

LSZ147-162-231500-
LAKE SUPERIOR

STATION/POSITION TIME  TEMP    WIND        PRES    WAVE
                       AIR SEA DIR/SP/G            HT/PER
                 (UTC) (F)     (DEG/KT/KT) (MB)    (FT/S)
W MID LAKE BUOY  1350   52 51              1006.1F   3/ 5
DEVILS ISLAND    1400   54     200/  7/ 10 1006.3R
PORT WING        1140          170/ 12/ 22 1005.1
SAXON HARBOR     1340   55     200/ 10/ 17 1006.1S
$$

LMZ867-665-643>646-231500-
LAKE MICHIGAN

STATION/POSITION TIME  TEMP    WIND        PRES    WAVE
                       AIR SEA DIR/SP/G            HT/PER
                 (UTC) (F)     (DEG/KT/KT) (MB)    (FT/S)
S GREEN BAY BUOY 1400   50 58  230/  4/  4 1011.8
N MID LAKE BUOY  1350   52 57  260/  4/  6 1012.9F   1
NORTHPORT PIER   1340   46        CALM     1012.2F
KEWAUNEE LAKESHO 1354   44     290/  2/  4 1011.3F
SHEBOYGAN LAKESH 1400   48     340/  4/  5 1011.8F
PORT WASHINGTON  1400   50     340/  3/  5 1011.9
MILWAUKEE LAKESH 1350   51      30/  9/ 10   N/A
S MID LAKE BUOY  1350   55 60   20/ 19/ 23 1010.3F   3/ 5
KENOSHA   LAKESH 1400   51      30/ 11/ 14 1010.8
$$

TC  - TEMPERATURE IN CELSIUS
VSB - VISIBILITY IN STATUTE MILES
WCI - WIND CHILL INDEX
HX  - HEAT INDEX




USA.gov is the U.S. government's official web portal to all federal, state and local government web resources and services.